Flag for Tuvalu Weather past 2 weeks in Funafuti, Tuvalu

Now
81 °F

Scattered showers. More clouds than sun.


Feels Like: 87 °F
Forecast: 80 / 87 °F
Wind: 9 mph from North

Location: Funafuti

Current Time: Mar 7, 2015 at 10:08:32 AM

Latest Report: Mar 7, 2015 at 9:00 AM


Visibility: N/A

Pressure: 29.68 "Hg

Humidity: 89%

Dew point: 77 °F

Location of FunafutiLocation

Historic Weather in Funafuti — Graph

°F

Funafuti temperature yesterday

Maximum temperature yesterday: 90 °F (at 12:00 PM)
Minimum temperature yesterday: 82 °F (at 5:00 AM)
Average temperature yesterday: 85 °F

Past Weeks' High & Low Weather Summary

 TemperatureHumidityPressure
High91 °F (Feb 24, 3:00 PM)100% (Mar 3, 2:00 AM)29.83 "Hg (Mar 3, 2:00 AM)
Low75 °F (Mar 3, 2:00 AM)63% (Feb 21, 2:00 PM)29.56 "Hg (Mar 5, 4:00 PM)
Average84 °F79%29.73 "Hg
* Reported Feb 20 8:00 AM — Mar 7 8:00 AM, Funafuti, Weather by CustomWeather, © 2015

Note: Actual official high and low records may vary slightly from our data, if they occured in-between our weather recording intervals... More about our weather records

Advertising

Funafuti weather history for previous 24 hours

 ConditionsComfort  
Time TempWeatherWind HumidityBarometerVisibility
8:00 AM
Sat, Mar 7
79 °FSprinkles. Mostly cloudy.2 mph89%29.68 "HgN/A
7:00 AM79 °FSprinkles. Mostly cloudy.1 mph89%29.65 "HgN/A
6:00 AM79 °FSprinkles. Mostly cloudy.1 mph89%29.65 "HgN/A
5:00 AM79 °FLight rain. Mostly cloudy.3 mph89%29.62 "HgN/A
4:00 AM79 °FLight rain. Mostly cloudy.5 mph94%29.62 "HgN/A
3:00 AM79 °FSprinkles. Mostly cloudy.10 mph94%29.62 "HgN/A
2:00 AM81 °FHeavy rain. Mostly cloudy.7 mph89%29.59 "HgN/A
1:00 AM81 °FSprinkles. Mostly cloudy.17 mph89%29.62 "HgN/A
12:00 AM81 °FLight rain. Mostly cloudy.16 mph94%29.65 "HgN/A
11:00 PM
Fri, Mar 6
84 °FPassing clouds.8 mph84%29.65 "HgN/A
10:00 PM82 °FPassing clouds.15 mph84%29.65 "HgN/A
9:00 PM84 °FPassing clouds.3 mph84%29.65 "HgN/A
8:00 PM84 °FPartly cloudy.5 mph84%29.62 "HgN/A
7:00 PM82 °FPassing clouds.7 mph89%29.62 "HgN/A
6:00 PM82 °FScattered showers. Broken clouds.7 mph89%29.59 "HgN/A
4:00 PM82 °FSprinkles. Broken clouds.5 mph84%29.56 "HgN/A
3:00 PM88 °FScattered showers. Broken clouds.8 mph75%29.56 "HgN/A
2:00 PM88 °FScattered showers. Broken clouds.3 mph70%29.56 "HgN/A
1:00 PM90 °FScattered showers. Broken clouds.3 mph71%29.59 "HgN/A
12:00 PM90 °FPartly sunny.3 mph71%29.62 "HgN/A
11:00 AM88 °FPartly sunny.2 mph75%29.65 "HgN/A
10:00 AM88 °FPartly sunny.3 mph70%29.65 "HgN/A
Weather by CustomWeather, © 2015

See weather overviewHow to use our weather pages